Regional Weather Roundup
Issued by NWS

Home | Current Version | Previous Version | Graphics & Text | Print | Product List | Glossary On
Versions: 1 2 3 4 5 6 7 8 9 10 11 12 13 14 15 16 17 18 19 20 21 22 23 24 25 26 27 28 29 30 31 32 33 34 35 36 37 38 39 40 41 42 43 44 45 46 47 48 49 50
000
ASUS43 KLSX 080307
RWRMO

WEATHER SUMMARY FOR MISSOURI
NATIONAL WEATHER SERVICE SPRINGFIELD MO
1000 PM CDT TUE JUL 07 2015

NOTE: "FAIR" INDICATES FEW OR NO CLOUDS BELOW 12,000 FEET WITH NO
       SIGNIFICANT WEATHER AND/OR OBSTRUCTIONS TO VISIBILITY.
       CURRENT SKY AND/OR WEATHER CONDITIONS ARE NOT AVAILABLE FOR
       CHILLICOTHE AND FARMINGTON.

MOZ001>031-035>038-043-044-053-054-080400-
...NORTHERN AND WESTERN MISSOURI...

CITY           SKY/WX    TMP DP  RH WIND       PRES   REMARKS
KANSAS CTY INT CLOUDY    67  61  81 N7        30.06R
KANSAS C DTWN  CLOUDY    70  60  70 NE7       30.05R
LEE`S SUMMIT   LGT RAIN  67  63  87 CALM      30.07R
ST JOSEPH      CLOUDY    66  60  81 NE5       30.07R
CHILLICOTHE      N/A     69  60  73 N5        30.08R
KIRKSVILLE     CLOUDY    65  60  84 NE5       30.09R

$$
MOZ066>068-077>081-088>096-101>105-080400-
...SOUTHWEST MISSOURI...

CITY           SKY/WX    TMP DP  RH WIND       PRES   REMARKS
SPRINGFIELD    CLOUDY    67  66  97 NE7       30.03R FOG
JOPLIN         LGT RAIN  65  64  97 NE6       30.04R FOG

$$
MOZ032>034-039>042-045>050-055>058-069>072-080400-
...CENTRAL MISSOURI...

CITY           SKY/WX    TMP DP  RH WIND       PRES   REMARKS
COLUMBIA       LGT RAIN  66  64  93 E5        30.07R FOG
JEFFERSON CITY RAIN      66  63  90 E3        30.06R FOG
ROLLA          LGT RAIN  64  63  96 NE7       30.05S FOG
SEDALIA        LGT RAIN  67  65  93 E5        30.07R FOG
WHITEMAN AFB   DRIZZLE   65  64  95 E1        30.05R FOG
WARRENSBURG    DRIZZLE   64  63  94 CALM      30.06R
OSAGE BEACH    CLOUDY    64  63  94 E6        30.06R

$$
MOZ051-052-059>065-080400-
...EAST CENTRAL MISSOURI...

CITY           SKY/WX    TMP DP  RH WIND       PRES   REMARKS
ST LOUIS INTL  CLOUDY    69  62  78 CALM      30.07R
SPIRIT OF STL  LGT RAIN  65  65 100 SE3       30.06R FOG
ST CHARLES     CLOUDY    68  64  87 E3        30.05R

$$
MOZ072>076-082>087-097>100-106>115-080400-
...SOUTH CENTRAL AND SOUTHEAST MISSOURI...

CITY           SKY/WX    TMP DP  RH WIND       PRES   REMARKS
CAPE GIRARDEAU CLOUDY    73  72  96 SW7       30.02S
FARMINGTON     CLOUDY    66  66 100 N5        30.09R
POPLAR BLUFF   CLOUDY    74  72  93 SW3       30.02R
WEST PLAINS    CLOUDY    72  70  93 CALM      30.06R

$$


USA.gov is the U.S. government's official web portal to all federal, state and local government web resources and services.